Le nostre stazioni meteo in Italia

Pubblicità
Il mio iltempo24.it
Otranto, Italia (16334): Temperatura & dewpoint: 08.11.2019 10:00:00 - 14.11.2019 10:00:00 (CET)Otranto, Italia (16334): velocità del vento: 08.11.2019 10:00:00 - 14.11.2019 10:00:00 (CET)Otranto, Italia (16334): direzione del vento: 08.11.2019 10:00:00 - 14.11.2019 10:00:00 (CET)
Data & Tempo tt [°C] td [°C] ff [km/h] ff [kn] dd
14.11.2019 10:00:00 - - - - -
14.11.2019 09:00:00 - - - - -
14.11.2019 08:00:00 14,4 14,3 4 2 NNO
14.11.2019 07:00:00 13,2 12,2 8 4 NO
14.11.2019 06:00:00 13,1 12,1 8 4 N
14.11.2019 05:00:00 13,1 13,0 9 5 NO
14.11.2019 04:00:00 13,8 13,7 8 4 NO
14.11.2019 03:00:00 13,9 13,8 8 4 NO
14.11.2019 02:00:00 14,1 14,0 5 3 NO
14.11.2019 01:00:00 14,2 14,1 8 4 OSO
14.11.2019 00:00:00 14,8 14,7 5 3 O
13.11.2019 23:00:00 15,2 15,1 9 5 OSO
13.11.2019 22:00:00 15,9 15,8 5 3 OSO
13.11.2019 21:00:00 16,8 16,7 13 7 SSO
13.11.2019 20:00:00 17,3 17,2 15 8 S
13.11.2019 19:00:00 17,4 17,3 13 7 S
13.11.2019 18:00:00 17,3 17,2 11 6 SSO
13.11.2019 17:00:00 17,7 17,6 13 7 S
13.11.2019 16:00:00 18,3 18,2 15 8 SSO
13.11.2019 15:00:00 18,3 18,2 18 10 SSO
13.11.2019 14:00:00 18,1 18,0 22 12 S
13.11.2019 13:00:00 17,6 17,5 29 16 S
13.11.2019 12:00:00 18,2 18,1 29 16 SSO
13.11.2019 11:00:00 19,9 19,8 37 20 S
13.11.2019 10:00:00 19,4 19,3 39 21 S
13.11.2019 09:00:00 18,4 18,3 37 20 S
13.11.2019 08:00:00 18,2 18,1 35 19 S
13.11.2019 07:00:00 18,0 17,9 41 22 S
13.11.2019 06:00:00 18,3 18,2 44 24 S
13.11.2019 05:00:00 17,6 17,5 48 26 S
13.11.2019 04:00:00 18,2 18,1 52 28 SSE
13.11.2019 03:00:00 18,1 16,9 48 26 S
13.11.2019 02:00:00 17,6 17,4 48 26 S
13.11.2019 01:00:00 17,2 17,1 44 24 S
13.11.2019 00:00:00 18,6 17,4 42 23 S
12.11.2019 23:00:00 18,5 17,3 41 22 S
12.11.2019 22:00:00 18,7 17,5 39 21 S
12.11.2019 21:00:00 18,5 17,3 39 21 S
12.11.2019 20:00:00 18,6 17,4 34 18 S
12.11.2019 19:00:00 18,6 17,4 34 18 S
12.11.2019 18:00:00 18,6 18,5 31 17 S
12.11.2019 17:00:00 18,7 18,3 31 17 S
12.11.2019 16:00:00 18,2 18,1 35 19 SSE
12.11.2019 15:00:00 18,0 17,9 37 20 S
12.11.2019 14:00:00 17,0 16,9 48 26 S
12.11.2019 13:00:00 17,2 17,1 39 21 SSE
12.11.2019 12:00:00 16,5 16,4 35 19 S
12.11.2019 11:00:00 17,8 17,7 52 28 SSE
12.11.2019 10:00:00 17,7 17,6 55 30 S
12.11.2019 09:00:00 21,2 21,1 41 22 ESE
12.11.2019 08:00:00 21,0 20,8 37 20 SE
12.11.2019 07:00:00 20,8 20,3 37 20 SE
12.11.2019 06:00:00 20,5 20,1 34 18 SE
12.11.2019 05:00:00 19,5 19,4 28 15 ESE
12.11.2019 04:00:00 19,2 19,1 22 12 ESE
12.11.2019 03:00:00 19,0 18,9 13 7 SSE
12.11.2019 02:00:00 18,5 18,4 15 8 SE
12.11.2019 01:00:00 18,2 18,1 15 8 SE
12.11.2019 00:00:00 18,5 18,4 13 7 SE
11.11.2019 23:00:00 18,4 17,2 13 7 SE
11.11.2019 22:00:00 18,3 17,4 15 8 SE
11.11.2019 21:00:00 18,1 16,9 16 9 E
11.11.2019 20:00:00 17,9 17,2 15 8 SE
11.11.2019 19:00:00 17,9 16,7 13 7 SSE
11.11.2019 18:00:00 18,1 16,9 15 8 SE
11.11.2019 17:00:00 18,3 17,9 13 7 SSE
11.11.2019 16:00:00 19,0 17,8 13 7 ESE
11.11.2019 15:00:00 - - - - -
11.11.2019 14:00:00 20,6 19,4 22 12 SSE
11.11.2019 13:00:00 21,0 18,9 16 9 S
11.11.2019 12:00:00 20,7 18,9 18 10 SSE
11.11.2019 11:00:00 20,2 19,1 18 10 S
11.11.2019 10:00:00 19,4 18,2 13 7 SSE
11.11.2019 09:00:00 17,6 17,4 4 2 ESE
11.11.2019 08:00:00 17,8 16,6 5 3 S
11.11.2019 07:00:00 17,6 16,4 13 7 SSE
11.11.2019 06:00:00 17,3 16,6 15 8 SE
11.11.2019 05:00:00 16,9 15,7 11 6 SSE
11.11.2019 04:00:00 17,0 16,1 15 8 S
11.11.2019 03:00:00 17,1 16,4 13 7 S
11.11.2019 02:00:00 17,1 15,6 15 8 S
11.11.2019 01:00:00 17,0 15,6 13 7 SSE
11.11.2019 00:00:00 16,7 15,5 11 6 SE
10.11.2019 23:00:00 16,4 15,2 11 6 S
10.11.2019 22:00:00 15,9 14,9 13 7 SSE
10.11.2019 21:00:00 15,7 14,7 4 2 SSE
10.11.2019 20:00:00 15,4 14,4 8 4 S
10.11.2019 19:00:00 15,2 14,5 5 3 S
10.11.2019 18:00:00 15,9 14,5 5 3 S
10.11.2019 17:00:00 16,8 16,1 5 3 SSO
10.11.2019 16:00:00 18,8 16,9 4 2 SSO
10.11.2019 15:00:00 19,4 17,5 8 4 S
10.11.2019 14:00:00 19,1 16,3 11 6 SO
10.11.2019 13:00:00 18,3 16,2 13 7 SO
10.11.2019 12:00:00 18,2 16,5 11 6 SO
10.11.2019 11:00:00 17,6 16,4 5 3 S
10.11.2019 10:00:00 - - - - -
10.11.2019 09:00:00 - - - - -
10.11.2019 08:00:00 13,1 13,0 11 6 NNO
10.11.2019 07:00:00 13,0 12,9 4 2 SE
10.11.2019 06:00:00 13,3 13,2 0 0 N
10.11.2019 05:00:00 13,7 13,6 2 1 ESE
10.11.2019 04:00:00 13,7 13,6 4 2 ONO
10.11.2019 03:00:00 13,8 13,7 8 4 O
10.11.2019 02:00:00 14,5 14,4 8 4 O
10.11.2019 01:00:00 15,4 15,3 5 3 SO
10.11.2019 00:00:00 15,8 15,7 15 8 S
09.11.2019 23:00:00 16,9 16,8 8 4 SSO
09.11.2019 22:00:00 16,4 16,3 18 10 S
09.11.2019 21:00:00 16,0 15,9 16 9 S
09.11.2019 20:00:00 14,9 14,8 9 5 SSO
09.11.2019 19:00:00 16,5 16,4 15 8 SO
09.11.2019 18:00:00 18,6 18,5 24 13 SSE
09.11.2019 17:00:00 18,5 18,4 16 9 S
09.11.2019 16:00:00 19,5 19,4 26 14 SSO
09.11.2019 15:00:00 19,2 19,1 26 14 S
09.11.2019 14:00:00 20,3 20,2 15 8 SSO
09.11.2019 13:00:00 20,7 20,6 22 12 S
09.11.2019 12:00:00 20,8 20,7 24 13 S
09.11.2019 11:00:00 20,8 19,4 26 14 S
09.11.2019 10:00:00 20,3 20,2 24 13 S
09.11.2019 09:00:00 19,2 19,1 18 10 S
09.11.2019 08:00:00 18,1 18,0 15 8 SSO
09.11.2019 07:00:00 17,6 17,5 11 6 S
09.11.2019 06:00:00 17,8 17,7 8 4 SSO
09.11.2019 05:00:00 18,4 18,3 15 8 S
09.11.2019 04:00:00 18,6 18,5 13 7 SSO
09.11.2019 03:00:00 17,9 17,8 15 8 SSO
09.11.2019 02:00:00 18,3 18,2 16 9 S
09.11.2019 01:00:00 18,2 18,1 26 14 S
09.11.2019 00:00:00 19,1 19,0 28 15 S
08.11.2019 23:00:00 18,9 18,8 18 10 S
08.11.2019 22:00:00 18,5 18,4 16 9 S
08.11.2019 21:00:00 18,4 18,3 21 11 S
08.11.2019 20:00:00 18,3 17,9 18 10 S
08.11.2019 19:00:00 18,4 18,2 22 12 S
08.11.2019 18:00:00 18,3 17,1 21 11 S
08.11.2019 17:00:00 18,6 17,4 18 10 S
08.11.2019 16:00:00 19,2 18,0 16 9 S
08.11.2019 15:00:00 19,5 18,3 18 10 S
08.11.2019 14:00:00 19,6 18,4 24 13 S
08.11.2019 13:00:00 19,9 19,0 9 5 S
08.11.2019 12:00:00 20,5 18,4 9 5 SSO
08.11.2019 11:00:00 - - - - -
08.11.2019 10:00:00 - - - - -

tt = Temperatura
td = dewpoint
ff = velocità del vento
dd = direzione del vento

Stazioni seguenti

WeatherPro
AMSI
MeteoEarth